Moron de la Frontera, Spain

11:08 AM CET on February 25, 2018 (GMT +0100)
Moron Air Base

Weather History for LEMO - June, 2013

Change the Weather History Date:

Friday, June 28, 2013

  Actual Average Record
Temperature  
Mean Temperature 78 °F -  
Max Temperature 95 °F 92 °F 107 °F (2015)
Min Temperature 62 °F 64 °F 55 °F (1997)
Cooling Degree Days 14    
Growing Degree Days 28 (Base 50)    
Moisture  
Dew Point 56 °F    
Average Humidity 47    
Maximum Humidity 68    
Minimum Humidity 30    
Precipitation  
Precipitation 0.00 in - - ()
Sea Level Pressure  
Sea Level Pressure 30.07 in    
Wind  
Wind Speed 4 mph ()    
Max Wind Speed 9 mph    
Max Gust Speed -    
Averages and records for this station are not official NWS values.
T = Trace of Precipitation, MM = Missing Value Source: Averaged Metar Reports

Daily Weather History Graph

Daily Weather History Graph

Search for Another Location

Airport or City:

Trip Planner

Search our weather history database for the weather conditions in past years. The results will help you decide how hot, cold, wet, or windy it might be!

Date:

Astronomy

Jun. 28, 2013 Rise Set
Actual Time 7:04 AM CEST 9:46 PM CEST
Civil Twilight 6:33 AM CEST 10:17 PM CEST
Nautical Twilight 5:55 AM CEST 10:55 PM CEST
Astronomical Twilight 5:12 AM CEST 11:39 PM CEST
Moon 12:43 AM CEST (6/28) 12:48 PM CEST (6/28)
Length of Visible Light 15h 43m
Length of Day
14h 41m
Waning Gibbous, 69% of the Moon is Illuminated
Jun 28
Waning Gibbous
Jun 30
Last Quarter
Jul 8
New
Jul 16
First Quarter
Jul 22
Full

Hourly Weather History & Observations

Time (CEST) Temp. Heat Index Dew Point Humidity Pressure Visibility Wind Dir Wind Speed Gust Speed Precip Events Conditions
12:00 AM 73.4 °F - 53.6 °F 50% 30.06 in - SSW 5.8 mph - N/A   Clear
1:00 AM 69.8 °F - 53.6 °F 56% 30.06 in - WSW 4.6 mph - N/A   Clear
3:00 AM 66.2 °F - 53.6 °F 64% 30.06 in - SSW 4.6 mph - N/A   Clear
4:00 AM 64.4 °F - 51.8 °F 64% 30.06 in - Variable 2.3 mph - N/A   Clear
5:00 AM 66.2 °F - 51.8 °F 60% 30.06 in - Variable 1.2 mph - N/A   Clear
6:00 AM 64.4 °F - 51.8 °F 64% 30.09 in - Variable 2.3 mph - N/A   Clear
7:00 AM 62.6 °F - 51.8 °F 68% 30.09 in - Variable 2.3 mph - N/A   Clear
8:00 AM 64.4 °F - 53.6 °F 68% 30.09 in - Variable 2.3 mph - N/A   Clear
9:00 AM 71.6 °F - 55.4 °F 57% 30.09 in - NE 3.5 mph - N/A   Clear
10:00 AM 75.2 °F - 57.2 °F 53% 30.12 in - NNE 6.9 mph - N/A   Clear
11:00 AM 80.6 °F 80.8 °F 57.2 °F 45% 30.09 in - Variable 1.2 mph - N/A   Clear
12:00 PM 82.4 °F 82.0 °F 57.2 °F 42% 30.09 in - Variable 2.3 mph - N/A   Clear
1:00 PM 86.0 °F 84.5 °F 55.4 °F 35% 30.09 in - WNW 3.5 mph - N/A   Clear
2:00 PM 87.8 °F 87.1 °F 59.0 °F 38% 30.09 in - West 3.5 mph - N/A   Clear
3:00 PM 91.4 °F 89.9 °F 57.2 °F 31% 30.09 in - WNW 4.6 mph - N/A   Clear
4:00 PM 93.2 °F 92.6 °F 59.0 °F 32% 30.06 in - West 3.5 mph - N/A   Clear
5:00 PM 95.0 °F 94.4 °F 59.0 °F 30% 30.06 in - Variable 1.2 mph - N/A   Clear
6:00 PM 95.0 °F 94.4 °F 59.0 °F 30% 30.04 in - NW 5.8 mph - N/A   Clear
7:00 PM 95.0 °F 94.4 °F 59.0 °F 30% 30.04 in - Variable 1.2 mph - N/A   Clear
8:00 PM 91.4 °F 91.4 °F 60.8 °F 36% 30.04 in - West 8.1 mph - N/A   Clear
9:00 PM 86.0 °F 85.4 °F 59.0 °F 40% 30.04 in - SW 9.2 mph - N/A   Clear
10:00 PM 80.6 °F 80.5 °F 55.4 °F 42% 30.06 in - SSW 6.9 mph - N/A   Clear
11:00 PM 77.0 °F - 53.6 °F 44% 30.09 in - South 5.8 mph - N/A   Clear